Home   Weather   Pretoria   Past weeks

Flag for South Africa Past Weather in Pretoria, South Africa — Yesterday and Last 2 Weeks

Now
77 °F

Warm.


Feels Like: 79 °F
Forecast: 59 / 80 °F
Wind: 3 mph from Northeast

Location: Waterkloof Lmb

Current Time: Feb 28, 2017 at 2:44:27 pm

Latest Report: Feb 28, 2017 at 2:00 pm


Visibility: N/A

Pressure: 30.21 "Hg (25.91 "Hg at 1338m altitude)

Humidity: 61%

Dew Point: 63 °F

Location of PretoriaLocation

Past Weather in Pretoria — Graph

°F

Pretoria Temperature Yesterday

Maximum temperature yesterday: 79 °F (at 4:00 pm)
Minimum temperature yesterday: 70 °F (at 7:00 am)
Average temperature yesterday: 73 °F

High & Low Weather Summary for the Past Weeks

 TemperatureHumidityPressure
High90 °F (Feb 13, 1:00 pm)94% (Feb 20, 5:00 am)30.33 "Hg (Feb 20, 5:00 am)
Low63 °F (Feb 21, 11:00 pm)32% (Feb 26, 5:00 pm)29.98 "Hg (Feb 21, 3:00 pm)
Average73 °F71%30.16 "Hg
* Reported Feb 13 1:00 pm — Feb 28 1:00 pm, Pretoria, Weather by CustomWeather, © 2017

Note: Actual official high and low records may vary slightly from our data, if they occured in-between our weather recording intervals... More about our weather records

Advertising

Pretoria Weather History for the Previous 24 Hours

Scroll right to see more
 ConditionsComfort  
Time TempWeatherWind HumidityBarometerVisibility
1:00 pm
Tue, Feb 28
73 °FMild.5 mph69%30.24 "HgN/A
12:00 pm72 °FMild.6 mph73%30.24 "HgN/A
11:00 am73 °FMild.6 mph65%30.24 "HgN/A
10:00 am73 °FMild.6 mph65%30.24 "HgN/A
9:00 am75 °FMild.8 mph65%30.24 "HgN/A
8:00 am70 °FMild.5 mph73%30.24 "HgN/A
7:00 am68 °FMild.5 mph83%30.24 "HgN/A
6:00 am66 °FMild.6 mph83%30.21 "HgN/A
5:00 am66 °FMild.6 mph83%30.18 "HgN/A
4:00 am66 °FMild.7 mph88%30.18 "HgN/A
3:00 am66 °FMild.5 mph83%30.18 "HgN/A
2:00 am66 °FMild.5 mph83%30.21 "HgN/A
1:00 am68 °FMild.7 mph78%30.21 "HgN/A
12:00 am68 °FMild.7 mph83%30.21 "HgN/A
11:00 pm
Mon, Feb 27
70 °FMild.6 mph73%30.21 "HgN/A
10:00 pm70 °FMild.6 mph73%30.21 "HgN/A
9:00 pm72 °FMild.5 mph73%30.21 "HgN/A
8:00 pm72 °FMild.9 mph73%30.18 "HgN/A
7:00 pm75 °FMild.5 mph65%30.15 "HgN/A
6:00 pm75 °FMild.6 mph61%30.15 "HgN/A
5:00 pm77 °FWarm.8 mph57%30.15 "HgN/A
4:00 pm79 °FWarm.6 mph54%30.15 "HgN/A
3:00 pm77 °FWarm.7 mph61%30.18 "HgN/A
2:00 pm77 °FWarm.3 mph61%30.18 "HgN/A
Weather by CustomWeather, © 2017

See weather overviewHow to use our weather pages